sat.trackr.live / text

‹ back to catalog

STARLINK-11095 [DTC]

NORAD 59720 · 2024-088N

PAYLOAD ACTIVE UNKNOWN

§ Identity

Operator
Country
US
Launch date
2024-05-10
Launch site
AFWTR
Launch vehicle
Mass (kg)
RCS (m²)

Purposes: comms

External: N2YO · Heavens-Above · Gunter

§ Orbital elements

Epoch: 2026-05-24T21:19:10.206912Z

Period
91.74 min
Inclination
53.1583°
Eccentricity
0.0000872
Mean motion
15.69711772 rev/d
Perigee alt
359.1 km
Apogee alt
360.3 km
Semi-major
6,737.9 km
B*
1.8792e-5
RAAN
310.3720°
Arg perigee
117.2794°
Mean anomaly
242.8313°
Rev number
11,824

§ Raw data

STARLINK-11095 [DTC]1 59720U 24088N   26144.88831258  .00001689  00000+0  18792-4 0  99992 59720  53.1583 310.3720 0000872 117.2794 242.8313 15.69711772118249

JSON: /api/v1/satellites/59720 · /tle

For live sub-satellite position, see the globe view (requires WebGL).

§ Visibility from observer

Set your observer location to see the next 7 days of passes ≥ 10°. The values pass through the URL so the page stays shareable.

No JS? Fill the form by hand. The geolocation button needs JavaScript.